Wetbulb
30.19 29.74 29.32 28.46 27.75 27.39 27.23 26.58 27.21 27.92 29.24 29.54 29.58 30.63 32.03 32.59 32.32 32.61 33.62 34.90 35.55 35.33 35.49 35.80 35.86 36.53 37.11 37.37 38.33 38.95 41.21 44.25
28.99 28.91 28.36 27.65 26.67 26.35 26.30 26.27 26.76 27.68 28.48 28.32 29.07 29.83 31.25 30.50 31.49 31.89 32.60 33.18 34.27 35.57 34.92 35.08 35.32 35.93 36.26 36.56 38.25 39.62 41.39 43.14
27.76 27.72 27.09 25.99 25.50 25.08 25.73 25.77 26.92 27.09 28.01 28.15 28.53 28.82 28.53 28.88 29.63 30.87 31.44 32.52 32.68 34.54 34.19 34.56 35.55 36.11 35.93 36.29 37.84 37.95 38.98 40.14
26.70 26.09 26.02 24.75 24.24 24.29 24.97 25.50 26.36 26.50 26.96 26.87 26.65 26.91 27.31 28.14 28.78 30.29 31.33 31.77 32.33 32.99 33.11 33.38 34.32 34.98 36.41 36.74 36.44 37.83 38.38 39.52
24.92 24.95 27.09 26.13 22.65 23.35 23.72 24.82 25.52 25.83 25.43 24.45 24.79 25.63 26.85 28.43 29.20 29.83 30.94 31.74 32.06 32.11 32.97 33.71 34.19 34.17 33.98 34.71 34.73 34.63 35.62 36.73
24.43 22.59 25.88 25.55 23.65 20.88 21.25 22.97 24.32 23.69 22.59 22.24 23.97 25.17 26.19 27.51 28.06 29.50 30.24 31.11 31.90 31.98 32.27 33.27 33.70 34.41 34.10 33.93 34.25 34.77 34.95 36.37
21.06 20.33 25.52 24.07 21.99 18.42 18.31 19.61 23.30 21.70 21.63 22.71 23.72 23.90 25.20 26.38 26.73 28.34 29.38 30.08 31.21 31.78 32.13 32.11 32.99 36.16 37.01 36.11 35.04 35.15 35.34 34.14
23.87 19.05 25.72 16.36 17.88 15.09 15.77 18.29 21.13 21.30 21.87 22.42 23.75 23.99 24.53 25.43 26.37 27.43 28.04 29.43 29.74 30.00 31.53 32.24 33.69 37.99 38.08 37.26 34.10 33.81 33.51 33.53
20.76 16.68 23.68 14.41 12.19 11.97 13.98 15.84 16.72 20.09 20.68 24.27 24.59 24.64 24.47 24.40 25.65 26.32 27.93 28.07 28.62 29.49 29.85 30.59 32.79 34.82 34.54 33.15 31.75 30.94 31.16 31.72
19.07 18.40 11.13 10.23 9.21 7.75 12.66 14.43 15.84 19.43 22.19 25.58 25.87 25.03 24.10 24.15 25.78 26.96 27.59 27.57 28.22 29.21 29.33 29.80 30.78 33.37 32.41 30.56 29.17 28.60 28.60 29.59
13.68 8.06 8.52 12.82 7.49 11.77 10.53 17.32 16.37 18.43 22.15 24.10 26.08 25.51 24.39 24.97 25.70 27.63 28.09 27.80 27.80 27.07 29.08 29.94 29.99 32.67 32.19 30.14 28.33 26.89 27.48 29.25
13.33 19.13 16.04 7.96 10.93 13.07 11.71 13.43 14.08 16.68 18.70 19.61 21.36 21.25 22.08 23.90 25.88 26.70 28.11 27.40 27.01 26.51 26.30 28.83 29.99 31.27 31.94 30.82 27.45 26.49 25.78 25.98
22.18 19.95 14.67 10.64 18.18 15.26 17.23 14.31 14.08 17.84 18.27 18.83 19.91 21.80 22.66 22.27 23.67 24.47 25.80 24.78 24.64 24.75 24.64 25.20 29.17 30.78 31.65 31.13 29.97 28.75 25.27 24.86
22.58 21.61 18.84 17.42 21.47 23.11 18.79 17.41 16.37 15.28 13.81 16.57 19.64 22.20 22.49 22.65 23.01 23.22 23.19 22.91 22.44 22.14 21.78 22.17 23.88 25.45 29.86 29.76 29.23 28.87 26.18 27.08
20.10 20.79 21.27 20.32 21.96 21.58 19.20 18.32 12.22 12.08 14.39 17.28 18.76 20.72 21.89 22.64 22.62 22.32 21.48 21.03 20.28 19.86 19.49 20.88 21.47 21.68 22.15 22.11 21.76 23.77 23.71 24.80
21.92 22.53 22.59 20.61 19.70 18.22 18.00 15.63 14.69 12.76 14.88 16.17 17.11 16.69 18.85 20.45 21.15 22.10 21.62 23.21 19.08 17.62 18.89 19.62 21.32 24.06 24.91 22.35 20.22 19.83 19.92 15.94
22.17 22.30 21.51 19.68 19.24 17.83 15.82 14.82 13.67 14.11 15.00 14.96 15.19 14.64 16.00 17.87 20.34 28.72 28.87 29.18 28.64 28.52 26.28 25.38 27.78 28.68 28.26 27.19 26.30 24.86 21.91 12.63
23.67 23.24 21.60 20.55 19.78 17.54 14.50 13.23 12.62 14.31 14.12 13.06 13.66 13.76 13.95 13.72 15.91 14.95 19.39 26.99 28.31 28.58 28.81 28.33 27.69 28.01 28.42 27.54 25.65 24.75 18.24 10.38
24.62 22.61 20.91 21.00 21.30 19.04 13.71 12.98 13.23 12.33 10.85 13.30 13.53 13.08 11.76 12.08 12.48 13.78 12.35 12.35 14.03 18.30 24.33 27.63 27.98 27.68 27.50 26.54 22.21 15.80 13.00 9.86
21.94 23.19 20.29 20.67 22.40 16.21 13.55 13.11 12.05 12.25 11.78 11.17 10.29 9.94 11.13 10.89 10.67 10.14 9.95 10.10 9.31 12.56 17.77 12.04 25.04 26.86 27.09 25.25 15.46 13.74 13.23 9.96
MSLP
1015.56 1015.78 1015.86 1015.73 1015.45 1015.23 1014.85 1014.30 1013.55 1012.75 1012.05 1011.17 1010.44 1009.59 1008.62 1007.77 1006.90 1006.15 1005.39 1004.71 1004.04 1003.67 1003.73 1003.76 1003.69 1003.59 1003.44 1003.22 1003.00 1003.10 1002.79 1002.70
1015.50 1015.70 1015.73 1015.55 1015.28 1014.82 1014.41 1013.84 1013.03 1012.38 1011.61 1010.84 1009.89 1009.13 1008.17 1007.29 1006.33 1005.43 1004.60 1003.84 1003.14 1002.32 1002.47 1002.59 1002.63 1002.54 1002.46 1002.43 1002.18 1002.01 1001.93 1002.01
1015.60 1015.64 1015.60 1015.44 1015.06 1014.70 1014.27 1013.64 1012.86 1012.10 1011.28 1010.42 1009.58 1008.79 1007.89 1006.98 1006.08 1005.09 1003.94 1002.96 1002.20 1001.57 1001.32 1001.44 1001.52 1001.48 1001.49 1001.51 1001.46 1001.46 1001.41 1001.31
1015.38 1015.63 1015.57 1015.31 1014.87 1014.59 1014.09 1013.46 1012.81 1012.06 1011.14 1010.22 1009.37 1008.58 1007.68 1006.66 1005.53 1004.29 1003.14 1002.04 1001.13 1000.61 1000.24 1000.27 1000.40 1000.54 1000.47 1000.48 1000.69 1000.62 1000.88 1000.79
1015.32 1015.49 1015.41 1015.21 1014.88 1014.56 1014.04 1013.55 1012.81 1011.98 1011.11 1010.26 1009.35 1008.51 1007.51 1006.32 1005.10 1003.76 1002.62 1001.48 1000.34 999.62 999.26 999.20 999.29 999.51 999.72 999.86 1000.03 1000.14 1000.43 1000.57
1015.25 1015.42 1015.17 1015.20 1014.96 1014.46 1014.10 1013.50 1012.80 1012.02 1011.17 1010.38 1009.51 1008.56 1007.40 1006.17 1005.03 1003.68 1002.43 1001.34 1000.01 999.10 998.50 998.33 998.42 998.53 998.77 999.10 999.34 999.61 999.93 999.91
1014.82 1015.08 1015.12 1015.23 1015.06 1014.60 1014.21 1013.58 1012.96 1012.20 1011.35 1010.47 1009.56 1008.54 1007.48 1006.35 1005.19 1004.02 1002.78 1001.63 1000.35 999.18 998.33 997.63 997.42 997.47 997.82 998.18 998.52 999.02 999.20 999.43
1014.46 1014.83 1015.13 1015.19 1015.16 1014.89 1014.45 1013.88 1013.21 1012.40 1011.48 1010.58 1009.69 1008.77 1007.74 1006.69 1005.55 1004.44 1003.25 1002.30 1001.17 1000.05 998.93 998.14 997.26 996.60 996.89 997.49 998.13 998.41 998.95 999.43
1014.24 1014.61 1014.95 1015.14 1015.17 1014.88 1014.36 1013.91 1013.41 1012.58 1011.68 1010.73 1010.00 1009.16 1008.16 1007.14 1006.01 1005.08 1004.05 1003.10 1002.25 1001.21 1000.15 999.34 998.78 998.36 998.09 998.20 998.71 999.30 999.81 999.96
1013.72 1014.41 1014.85 1015.12 1014.88 1014.71 1014.29 1014.00 1013.50 1012.76 1012.04 1011.17 1010.42 1009.62 1008.67 1007.69 1006.75 1005.78 1004.94 1004.08 1003.22 1002.22 1001.35 1000.61 1000.27 999.89 999.62 999.36 999.85 1000.28 1000.90 1001.27
1013.52 1014.26 1014.72 1014.53 1014.58 1014.49 1014.59 1014.02 1013.63 1013.05 1012.33 1011.47 1010.74 1010.11 1009.35 1008.44 1007.51 1006.67 1005.87 1005.15 1004.31 1003.44 1002.68 1002.13 1001.59 1001.30 1001.09 1000.92 1001.00 1001.47 1002.14 1002.67
1013.20 1013.42 1013.47 1013.80 1014.25 1014.36 1014.31 1013.95 1013.32 1012.93 1012.33 1011.67 1010.90 1010.31 1009.72 1008.94 1008.18 1007.41 1006.72 1005.95 1005.21 1004.65 1004.22 1003.59 1003.13 1002.95 1002.57 1002.53 1002.55 1003.12 1003.82 1004.24
1012.60 1012.60 1012.52 1012.90 1013.26 1013.54 1013.69 1013.24 1013.00 1012.83 1012.34 1011.76 1011.14 1010.51 1010.02 1009.40 1008.75 1008.12 1007.47 1006.84 1006.41 1005.96 1005.63 1005.42 1005.15 1004.73 1004.47 1004.36 1004.43 1004.85 1004.96 1005.63
1011.47 1011.68 1012.07 1012.30 1012.51 1012.71 1012.86 1012.88 1012.77 1012.73 1012.43 1011.97 1011.53 1010.89 1010.38 1009.96 1009.65 1009.10 1008.61 1008.23 1007.97 1007.61 1007.47 1007.30 1007.03 1006.68 1006.35 1006.07 1006.17 1006.23 1006.41 1006.84
1010.58 1010.92 1011.22 1011.35 1011.68 1011.76 1012.26 1012.60 1012.67 1012.75 1012.50 1012.10 1011.67 1011.29 1010.88 1010.50 1010.44 1010.30 1009.97 1009.63 1009.22 1008.94 1008.81 1008.68 1008.40 1008.31 1008.27 1008.25 1008.44 1008.37 1008.54 1009.04
1009.18 1009.51 1009.85 1010.32 1010.89 1010.95 1011.55 1012.18 1012.49 1012.65 1012.43 1012.10 1011.75 1011.43 1011.18 1010.89 1010.67 1010.66 1010.68 1010.49 1010.60 1010.54 1010.19 1009.88 1009.56 1009.48 1009.35 1009.33 1009.63 1009.75 1010.05 1010.32
1007.91 1008.41 1008.90 1009.57 1009.95 1010.37 1010.61 1011.35 1012.13 1012.59 1012.62 1012.39 1012.31 1012.23 1012.05 1011.64 1011.17 1010.61 1010.38 1010.14 1010.01 1010.00 1009.96 1009.94 1009.89 1009.96 1009.98 1010.10 1010.22 1010.18 1010.34 1010.87
1006.55 1006.93 1007.78 1008.40 1008.92 1009.64 1010.24 1010.26 1010.65 1011.62 1011.78 1012.07 1012.27 1012.40 1012.54 1012.56 1012.43 1012.05 1011.95 1011.58 1011.24 1010.95 1010.68 1010.59 1010.39 1010.31 1010.30 1010.57 1010.98 1011.21 1011.52 1012.53
1005.56 1006.07 1006.53 1007.16 1007.68 1008.17 1009.49 1010.00 1010.11 1010.43 1010.98 1011.49 1011.65 1011.93 1012.21 1012.30 1012.35 1012.41 1012.25 1012.03 1011.85 1011.58 1011.41 1011.20 1011.13 1011.11 1011.07 1011.32 1011.68 1012.08 1012.49 1012.85
1004.78 1005.16 1005.74 1006.19 1006.30 1007.04 1008.25 1009.34 1009.70 1010.18 1010.69 1010.93 1011.40 1011.72 1011.79 1012.01 1012.29 1012.36 1012.45 1012.49 1012.53 1012.23 1011.57 1011.38 1010.99 1010.79 1010.76 1011.06 1011.63 1012.17 1012.68 1013.10
Wind_Speed
4 5 4 6 7 10 12 14 14 14 13 13 16 17 16 15 16 18 17 16 18 16 15 15 16 16 15 14 14 13 11 10
6 5 6 7 8 10 11 13 13 12 13 15 15 16 15 16 15 16 17 16 17 14 15 15 15 16 15 16 12 11 12 15
5 6 6 7 8 9 10 11 12 13 13 14 15 16 16 16 17 17 16 15 14 14 13 13 14 14 14 14 13 14 13 13
4 5 6 7 8 9 10 12 12 13 13 14 14 14 15 16 16 15 15 14 12 13 14 14 14 13 12 9 8 6 7 7
4 5 5 6 6 8 11 10 12 12 12 12 13 14 14 14 15 14 14 13 10 9 12 13 12 12 10 9 9 7 7 11
4 5 3 7 7 7 8 10 11 11 11 12 12 13 13 13 14 13 12 12 10 7 6 9 10 9 11 13 12 10 11 12
5 4 3 4 6 7 8 10 10 11 10 11 12 12 13 13 13 13 12 12 10 9 6 3 7 15 20 14 10 11 9 7
6 4 4 4 5 6 7 8 9 10 10 10 11 12 12 12 12 13 13 12 12 13 12 10 9 5 12 12 4 5 5 6
5 4 4 3 4 5 5 5 6 8 10 9 11 11 12 11 12 12 11 11 10 12 13 12 11 19 21 22 13 12 11 10
5 5 3 4 4 3 4 5 5 7 10 10 10 11 11 11 11 11 10 10 11 10 13 14 14 22 22 19 14 15 15 13
6 3 2 4 2 1 4 4 5 7 8 8 7 8 10 11 10 8 8 8 9 13 14 16 16 26 24 18 12 16 12 13
4 6 6 4 3 0 3 3 4 6 6 6 6 5 6 6 7 9 8 9 11 13 14 15 16 20 28 26 13 11 11 11
7 7 5 6 5 3 3 4 3 4 4 5 6 5 5 5 7 8 8 10 11 11 11 11 13 21 26 28 25 20 13 12
8 6 5 6 5 4 4 2 2 3 4 4 5 6 6 6 8 6 8 7 8 8 9 9 8 9 23 24 24 22 14 10
8 7 7 7 7 6 4 3 3 1 2 2 3 4 6 5 5 6 7 6 6 6 7 6 7 7 7 7 8 15 12 16
11 10 11 7 8 7 6 5 3 3 3 1 1 2 2 2 2 3 1 4 2 3 3 5 7 7 11 9 6 6 10 7
12 9 9 8 8 8 8 8 5 3 3 2 1 2 2 2 4 11 10 13 13 12 10 5 12 14 15 17 16 14 9 6
15 14 9 10 10 8 8 9 9 7 5 3 2 1 0 1 2 3 4 11 13 11 11 11 9 9 9 10 13 12 9 4
11 10 11 11 13 10 8 8 7 6 6 4 3 3 2 1 2 2 2 1 2 3 6 6 7 8 8 9 7 4 5 2
9 10 10 11 13 10 11 10 8 6 4 4 4 3 4 3 3 2 2 1 1 3 4 7 9 6 4 7 3 2 2 2
Wind_Direction
306 305 294 306 316 309 307 306 307 309 311 309 308 305 299 294 289 286 283 277 272 250 244 242 245 246 247 252 244 239 238 236
314 303 299 305 313 315 318 315 314 315 314 313 312 308 303 299 292 289 286 280 280 245 242 239 239 238 234 240 249 241 231 227
290 300 306 308 322 321 319 320 320 316 315 319 314 314 312 305 300 297 289 281 271 256 236 234 237 237 239 241 239 231 235 238
293 295 304 304 325 320 325 323 321 317 322 322 318 316 312 310 308 305 298 289 272 254 236 229 227 228 231 238 248 231 243 249
280 277 294 324 309 316 324 324 319 320 324 322 322 318 313 314 314 317 315 302 287 254 238 229 220 219 223 224 223 229 240 251
243 263 307 331 316 319 320 323 322 319 323 321 320 319 317 323 324 324 328 322 314 300 252 228 220 220 216 219 218 226 234 245
236 260 312 315 310 319 321 323 322 314 319 321 327 326 329 331 333 331 341 338 345 356 352 299 221 219 213 207 207 216 211 189
215 223 274 273 287 307 309 316 320 314 320 328 336 337 335 333 344 349 354 351 1 12 18 22 11 134 200 184 133 125 120 137
198 222 259 240 279 291 306 326 322 322 322 339 344 337 335 338 357 349 357 7 7 17 29 31 47 70 90 88 84 77 68 68
185 184 208 255 255 300 342 333 328 346 338 340 348 340 337 346 353 358 4 14 18 21 32 43 51 62 73 79 77 72 66 60
194 175 195 252 222 10 328 329 337 332 325 325 339 346 348 341 346 352 4 12 28 32 34 44 54 58 65 70 73 72 66 65
179 210 209 188 199 248 288 312 285 302 313 325 331 332 329 337 349 351 14 31 36 41 35 37 48 58 63 65 67 72 69 64
201 223 218 199 186 194 260 255 298 319 333 339 336 346 344 354 352 3 15 29 34 39 42 33 44 60 68 70 71 74 78 73
204 214 210 206 204 198 217 204 22 10 345 350 352 3 359 16 10 16 18 29 30 38 37 32 28 37 57 72 79 81 82 86
191 209 221 198 204 202 170 157 125 108 335 335 27 15 12 16 29 27 25 28 25 35 44 43 40 40 34 48 52 65 74 88
199 207 215 186 206 192 173 162 166 199 240 239 138 90 74 32 63 49 27 65 62 22 16 37 49 54 70 74 67 80 89 93
209 205 206 193 200 203 172 161 168 202 247 253 303 12 35 36 31 57 70 70 74 63 57 47 65 73 82 84 74 64 63 46
206 208 191 197 199 200 187 170 169 195 203 207 205 197 138 34 43 32 5 49 60 73 90 90 88 77 86 85 66 63 93 90
201 201 195 193 208 183 178 183 183 184 187 193 196 187 169 164 132 112 100 102 302 16 61 66 98 103 106 111 103 53 40 76
195 207 194 203 215 169 167 184 185 179 192 182 181 187 185 167 155 143 141 112 24 340 351 1 7 15 65 97 113 113 96 128